This is the latest recevied weather packets stored in our database for station/object K8MUD. If no packets are shown the sender has not sent any weather packets the latest 10 day(s).
| Time | Temp. | Humidity | Pressure | Rain* | Wind** | Luminosity | Snow |
|---|---|---|---|---|---|---|---|
| 1777546880 | 7.22° C | 83% | 1013 hPa | 0 mm | - | - | - |
| 1777546580 | 6.67° C | 83% | 1013 hPa | 0 mm | - | - | - |
| 1777546280 | 6.67° C | 83% | 1013 hPa | 0 mm | - | - | - |
| 1777545979 | 6.67° C | 79% | 1012.9 hPa | 0 mm | - | - | - |
| 1777545680 | 6.67° C | 80% | 1012.9 hPa | 0 mm | - | - | - |
| 1777545379 | 6.67° C | 79% | 1012.9 hPa | 0 mm | - | - | - |
| 1777545079 | 6.67° C | 80% | 1012.7 hPa | 0 mm | - | - | - |
| 1777544779 | 6.67° C | 80% | 1012.8 hPa | 0 mm | - | - | - |
| 1777544479 | 6.67° C | 80% | 1012.8 hPa | 0 mm | - | - | - |
| 1777544179 | 6.67° C | 82% | 1012.8 hPa | 0 mm | - | - | - |
| 1777543879 | 6.67° C | 83% | 1012.8 hPa | 0 mm | - | - | - |
| 1777543579 | 6.11° C | 81% | 1012.7 hPa | 0 mm | - | - | - |
| 1777543279 | 6.11° C | 79% | 1012.7 hPa | 0 mm | - | - | - |
| 1777542979 | 6.11° C | 78% | 1012.6 hPa | 0 mm | - | - | - |
| 1777542679 | 6.11° C | 78% | 1012.6 hPa | 0 mm | - | - | - |
| 1777542379 | 6.11° C | 79% | 1012.5 hPa | 0 mm | - | - | - |
| 1777542079 | 6.11° C | 78% | 1012.5 hPa | 0 mm | - | - | - |
| 1777541779 | 6.11° C | 79% | 1012.5 hPa | 0 mm | - | - | - |
| 1777541478 | 6.11° C | 78% | 1012.4 hPa | 0 mm | - | - | - |
| 1777541178 | 6.11° C | 78% | 1012.5 hPa | 0 mm | - | - | - |
| 1777540878 | 6.11° C | 78% | 1012.3 hPa | 0 mm | - | - | - |
| 1777540578 | 6.11° C | 80% | 1012.4 hPa | 0 mm | - | - | - |
| 1777540278 | 6.11° C | 78% | 1012.5 hPa | 0 mm | - | - | - |
| 1777539978 | 6.11° C | 78% | 1012.4 hPa | 0 mm | - | - | - |
| 1777539678 | 6.11° C | 78% | 1012.4 hPa | 0 mm | - | - | - |
* Rain latest hour (hover to see other rain measurements)
** Current wind speed in m/s (hover to see current wind gust speed)